Time,TemperatureF,DewpointF,PressureIn,WindDirection,WindDirectionDegrees,WindSpeedMPH,WindSpeedGustMPH,Humidity,HourlyPrecipIn,Conditions,Clouds,dailyrainin,SoftwareType,DateUTC
2017-12-13 00:00:00,10.3,3.0,29.67,WNW,293,6.0,-999.0,71,0.00,,,0.00,,2017-12-13 05:00:00,
2017-12-13 00:06:00,10.6,3.0,29.67,NNW,338,8.0,-999.0,71,0.00,,,0.00,,2017-12-13 05:06:00,
2017-12-13 00:12:00,10.6,3.0,29.67,NNW,338,12.0,-999.0,71,0.00,,,0.00,,2017-12-13 05:12:00,
2017-12-13 00:17:00,10.6,3.0,29.66,NNW,338,5.0,-999.0,71,0.00,,,0.00,,2017-12-13 05:17:00,
2017-12-13 00:28:00,10.3,3.0,29.67,NW,315,5.0,-999.0,71,0.00,,,0.00,,2017-12-13 05:28:00,
2017-12-13 00:34:00,10.3,3.0,29.66,North,0,5.0,-999.0,71,0.00,,,0.00,,2017-12-13 05:34:00,
2017-12-13 00:39:00,10.1,2.0,29.67,NNW,338,5.0,-999.0,71,0.00,,,0.00,,2017-12-13 05:39:00,
2017-12-13 00:44:00,10.1,3.0,29.66,NW,315,8.0,-999.0,73,0.00,,,0.00,,2017-12-13 05:44:00,
2017-12-13 00:49:00,10.1,3.0,29.67,North,0,6.0,-999.0,73,0.00,,,0.00,,2017-12-13 05:49:00,
2017-12-13 00:55:00,10.1,3.0,29.67,NNW,338,6.0,-999.0,73,0.00,,,0.00,,2017-12-13 05:55:00,
2017-12-13 01:00:00,10.1,3.0,29.67,WNW,293,4.0,-999.0,73,0.00,,,0.00,,2017-12-13 06:00:00,
2017-12-13 01:05:00,10.3,3.0,29.67,WNW,293,6.0,-999.0,73,0.00,,,0.00,,2017-12-13 06:05:00,
2017-12-13 01:11:00,10.3,3.0,29.67,NNW,338,3.0,-999.0,73,0.00,,,0.00,,2017-12-13 06:11:00,
2017-12-13 01:16:00,10.3,3.0,29.67,North,0,5.0,-999.0,73,0.00,,,0.00,,2017-12-13 06:16:00,
2017-12-13 01:22:00,10.3,3.0,29.68,NW,315,6.0,-999.0,73,0.00,,,0.00,,2017-12-13 06:22:00,
2017-12-13 01:28:00,10.3,3.0,29.67,WNW,293,5.0,-999.0,73,0.00,,,0.00,,2017-12-13 06:28:00,
2017-12-13 01:39:00,10.3,3.0,29.68,NNW,338,7.0,-999.0,73,0.00,,,0.00,,2017-12-13 06:39:00,
2017-12-13 02:02:00,10.1,3.0,29.68,North,0,5.0,-999.0,73,0.00,,,0.00,,2017-12-13 07:02:00,
2017-12-13 02:07:00,10.1,3.0,29.68,NW,315,7.0,-999.0,73,0.00,,,0.00,,2017-12-13 07:07:00,
2017-12-13 02:13:00,10.1,3.0,29.68,WNW,293,9.0,-999.0,73,0.00,,,0.00,,2017-12-13 07:13:00,
2017-12-13 02:19:00,10.3,3.0,29.69,NW,315,5.0,-999.0,73,0.00,,,0.00,,2017-12-13 07:19:00,
2017-12-13 02:24:00,10.3,3.0,29.69,WNW,293,6.0,-999.0,73,0.00,,,0.00,,2017-12-13 07:24:00,
2017-12-13 02:30:00,10.3,3.0,29.69,NNW,338,6.0,-999.0,73,0.00,,,0.00,,2017-12-13 07:30:00,
2017-12-13 02:36:00,10.3,3.0,29.70,WNW,293,7.0,-999.0,73,0.00,,,0.00,,2017-12-13 07:36:00,
2017-12-13 02:41:00,10.3,3.0,29.70,NW,315,7.0,-999.0,73,0.00,,,0.00,,2017-12-13 07:41:00,
2017-12-13 02:47:00,10.3,3.0,29.70,WNW,293,10.0,-999.0,73,0.00,,,0.00,,2017-12-13 07:47:00,
2017-12-13 02:53:00,10.1,3.0,29.70,West,270,7.0,-999.0,73,0.00,,,0.00,,2017-12-13 07:53:00,
2017-12-13 02:58:00,10.1,3.0,29.70,NNW,338,5.0,-999.0,73,0.00,,,0.00,,2017-12-13 07:58:00,
2017-12-13 03:04:00,10.1,3.0,29.71,NNW,338,5.0,-999.0,73,0.00,,,0.00,,2017-12-13 08:04:00,
2017-12-13 03:09:00,10.1,3.0,29.71,NNW,338,5.0,-999.0,73,0.00,,,0.00,,2017-12-13 08:09:00,
2017-12-13 03:15:00,10.1,2.0,29.71,West,270,5.0,-999.0,71,0.00,,,0.00,,2017-12-13 08:15:00,
2017-12-13 03:20:00,10.1,2.0,29.71,NNW,338,6.0,-999.0,71,0.00,,,0.00,,2017-12-13 08:20:00,
2017-12-13 03:26:00,10.3,3.0,29.71,NNW,338,4.0,-999.0,71,0.00,,,0.00,,2017-12-13 08:26:00,
2017-12-13 03:37:00,10.3,3.0,29.71,NNW,338,4.0,-999.0,71,0.00,,,0.00,,2017-12-13 08:37:00,
2017-12-13 03:43:00,10.3,3.0,29.71,West,270,5.0,-999.0,71,0.00,,,0.00,,2017-12-13 08:43:00,
2017-12-13 04:06:00,10.6,3.0,29.71,WNW,293,5.0,-999.0,71,0.00,,,0.00,,2017-12-13 09:06:00,
2017-12-13 04:11:00,10.6,3.0,29.72,NNE,23,7.0,-999.0,71,0.00,,,0.00,,2017-12-13 09:11:00,
2017-12-13 04:17:00,10.6,3.0,29.72,NNW,338,4.0,-999.0,70,0.00,,,0.00,,2017-12-13 09:17:00,
2017-12-13 04:22:00,10.6,3.0,29.72,WNW,293,10.0,-999.0,70,0.00,,,0.00,,2017-12-13 09:22:00,
2017-12-13 04:34:00,10.3,2.0,29.72,WSW,248,6.0,-999.0,70,0.00,,,0.00,,2017-12-13 09:34:00,
2017-12-13 04:40:00,10.3,2.0,29.72,West,270,4.0,-999.0,70,0.00,,,0.00,,2017-12-13 09:40:00,
2017-12-13 04:45:00,10.3,2.0,29.73,NW,315,5.0,-999.0,70,0.00,,,0.00,,2017-12-13 09:45:00,
2017-12-13 04:51:00,10.1,2.0,29.73,North,0,5.0,-999.0,70,0.00,,,0.00,,2017-12-13 09:51:00,
2017-12-13 04:57:00,10.0,2.0,29.73,NNW,338,6.0,-999.0,70,0.00,,,0.00,,2017-12-13 09:57:00,
2017-12-13 05:08:00,9.8,2.0,29.73,SW,225,6.0,-999.0,70,0.00,,,0.00,,2017-12-13 10:08:00,
2017-12-13 05:13:00,9.8,2.0,29.73,NNW,338,7.0,-999.0,70,0.00,,,0.00,,2017-12-13 10:13:00,
2017-12-13 05:19:00,9.8,2.0,29.73,NNW,338,5.0,-999.0,70,0.00,,,0.00,,2017-12-13 10:19:00,
2017-12-13 05:26:00,9.8,2.0,29.73,NNE,23,5.0,-999.0,70,0.00,,,0.00,,2017-12-13 10:26:00,
2017-12-13 05:31:00,9.8,2.0,29.73,NE,45,4.0,-999.0,70,0.00,,,0.00,,2017-12-13 10:31:00,
2017-12-13 05:37:00,9.8,2.0,29.72,NNE,23,3.0,-999.0,70,0.00,,,0.00,,2017-12-13 10:37:00,
2017-12-13 05:43:00,9.8,2.0,29.73,WNW,293,3.0,-999.0,70,0.00,,,0.00,,2017-12-13 10:43:00,
2017-12-13 05:49:00,9.6,2.0,29.73,NE,45,2.0,-999.0,70,0.00,,,0.00,,2017-12-13 10:49:00,
2017-12-13 06:00:00,9.5,1.0,29.73,NNW,338,3.0,-999.0,70,0.00,,,0.00,,2017-12-13 11:00:00,
2017-12-13 06:06:00,9.5,1.0,29.73,West,270,6.0,-999.0,70,0.00,,,0.00,,2017-12-13 11:06:00,
2017-12-13 06:17:00,9.5,1.0,29.73,NNE,23,5.0,-999.0,70,0.00,,,0.00,,2017-12-13 11:17:00,
2017-12-13 06:23:00,9.5,1.0,29.74,NNE,23,7.0,-999.0,70,0.00,,,0.00,,2017-12-13 11:23:00,
2017-12-13 06:28:00,9.5,1.0,29.74,West,270,5.0,-999.0,70,0.00,,,0.00,,2017-12-13 11:28:00,
2017-12-13 06:34:00,9.5,2.0,29.73,NNW,338,5.0,-999.0,71,0.00,,,0.00,,2017-12-13 11:34:00,
2017-12-13 06:40:00,9.6,2.0,29.73,NNW,338,7.0,-999.0,71,0.00,,,0.00,,2017-12-13 11:40:00,
2017-12-13 06:45:00,9.6,2.0,29.73,WNW,293,8.0,-999.0,71,0.00,,,0.00,,2017-12-13 11:45:00,
2017-12-13 06:56:00,9.8,2.0,29.73,NW,315,8.0,-999.0,70,0.00,,,0.00,,2017-12-13 11:56:00,
2017-12-13 07:02:00,10.0,2.0,29.73,NW,315,5.0,-999.0,70,0.00,,,0.00,,2017-12-13 12:02:00,
2017-12-13 07:08:00,10.0,2.0,29.73,NW,315,4.0,-999.0,70,0.00,,,0.00,,2017-12-13 12:08:00,
2017-12-13 07:13:00,10.0,2.0,29.73,SW,225,7.0,-999.0,70,0.00,,,0.00,,2017-12-13 12:13:00,
2017-12-13 07:30:00,10.0,2.0,29.73,NNW,338,7.0,-999.0,70,0.00,,,0.00,,2017-12-13 12:30:00,
2017-12-13 07:36:00,9.8,2.0,29.73,North,0,4.0,-999.0,70,0.00,,,0.00,,2017-12-13 12:36:00,
2017-12-13 07:41:00,9.8,2.0,29.73,NNE,23,2.0,-999.0,70,0.00,,,0.00,,2017-12-13 12:41:00,
2017-12-13 07:59:00,9.8,2.0,29.73,NW,315,5.0,-999.0,70,0.00,,,0.00,,2017-12-13 12:59:00,
2017-12-13 08:05:00,9.8,2.0,29.73,NNW,338,3.0,-999.0,70,0.00,,,0.00,,2017-12-13 13:05:00,
2017-12-13 08:11:00,10.0,2.0,29.73,NNW,338,4.0,-999.0,70,0.00,,,0.00,,2017-12-13 13:11:00,
2017-12-13 08:16:00,10.1,2.0,29.73,North,0,5.0,-999.0,70,0.00,,,0.00,,2017-12-13 13:16:00,
2017-12-13 08:22:00,10.1,2.0,29.74,NW,315,5.0,-999.0,70,0.00,,,0.00,,2017-12-13 13:22:00,
2017-12-13 08:33:00,10.8,3.0,29.73,NNW,338,3.0,-999.0,70,0.00,,,0.00,,2017-12-13 13:33:00,
2017-12-13 08:38:00,11.2,3.0,29.74,North,0,5.0,-999.0,70,0.00,,,0.00,,2017-12-13 13:38:00,
2017-12-13 08:44:00,11.6,3.0,29.74,NE,45,6.0,-999.0,69,0.00,,,0.00,,2017-12-13 13:44:00,
2017-12-13 08:49:00,11.4,3.0,29.73,North,0,5.0,-999.0,69,0.00,,,0.00,,2017-12-13 13:49:00,
2017-12-13 08:55:00,12.0,3.0,29.74,WSW,248,4.0,-999.0,69,0.00,,,0.00,,2017-12-13 13:55:00,
2017-12-13 09:00:00,12.2,3.0,29.74,NNE,23,4.0,-999.0,69,0.00,,,0.00,,2017-12-13 14:00:00,
2017-12-13 09:06:00,12.6,4.0,29.74,NW,315,4.0,-999.0,68,0.00,,,0.00,,2017-12-13 14:06:00,
2017-12-13 09:12:00,12.8,3.0,29.74,NNE,23,9.0,-999.0,66,0.00,,,0.00,,2017-12-13 14:12:00,
2017-12-13 09:23:00,14.3,5.0,29.74,North,0,3.0,-999.0,66,0.00,,,0.00,,2017-12-13 14:23:00,
2017-12-13 09:33:00,14.9,5.0,29.73,WNW,293,3.0,-999.0,65,0.00,,,0.00,,2017-12-13 14:33:00,
2017-12-13 09:39:00,15.0,5.0,29.73,NW,315,7.0,-999.0,63,0.00,,,0.00,,2017-12-13 14:39:00,
2017-12-13 09:44:00,15.2,5.0,29.73,NW,315,5.0,-999.0,63,0.00,,,0.00,,2017-12-13 14:44:00,
2017-12-13 09:50:00,15.6,5.0,29.73,NNW,338,5.0,-999.0,63,0.00,,,0.00,,2017-12-13 14:50:00,
2017-12-13 09:55:00,15.6,5.0,29.74,NNW,338,5.0,-999.0,63,0.00,,,0.00,,2017-12-13 14:55:00,
2017-12-13 10:06:00,16.4,5.0,29.74,West,270,5.0,-999.0,61,0.00,,,0.00,,2017-12-13 15:06:00,
2017-12-13 10:11:00,17.2,6.0,29.74,NNE,23,3.0,-999.0,61,0.00,,,0.00,,2017-12-13 15:11:00,
2017-12-13 10:17:00,17.4,6.0,29.75,West,270,6.0,-999.0,61,0.00,,,0.00,,2017-12-13 15:17:00,
2017-12-13 10:23:00,17.2,6.0,29.74,NNE,23,4.0,-999.0,61,0.00,,,0.00,,2017-12-13 15:23:00,
2017-12-13 10:28:00,18.5,7.0,29.74,WSW,248,6.0,-999.0,61,0.00,,,0.00,,2017-12-13 15:28:00,
2017-12-13 10:34:00,18.2,6.0,29.74,NNW,338,6.0,-999.0,59,0.00,,,0.00,,2017-12-13 15:34:00,
2017-12-13 10:45:00,18.5,6.0,29.74,West,270,3.0,-999.0,58,0.00,,,0.00,,2017-12-13 15:45:00,
2017-12-13 10:46:00,18.1,5.0,29.74,SW,225,3.0,-999.0,58,0.00,,,0.00,,2017-12-13 15:46:00,
2017-12-13 10:51:00,18.7,6.0,29.74,NNE,23,2.0,-999.0,58,0.00,,,0.00,,2017-12-13 15:51:00,
2017-12-13 10:57:00,18.8,6.0,29.74,North,0,2.0,-999.0,58,0.00,,,0.00,,2017-12-13 15:57:00,
2017-12-13 11:03:00,19.0,6.0,29.74,NE,45,1.0,-999.0,56,0.00,,,0.00,,2017-12-13 16:03:00,
2017-12-13 11:08:00,20.0,7.0,29.73,South,180,4.0,-999.0,56,0.00,,,0.00,,2017-12-13 16:08:00,
2017-12-13 11:19:00,19.8,7.0,29.73,West,270,3.0,-999.0,56,0.00,,,0.00,,2017-12-13 16:19:00,
2017-12-13 11:24:00,20.2,7.0,29.73,SSW,203,2.0,-999.0,56,0.00,,,0.00,,2017-12-13 16:24:00,
2017-12-13 11:35:00,20.7,7.0,29.72,NW,315,2.0,-999.0,56,0.00,,,0.00,,2017-12-13 16:35:00,
2017-12-13 11:41:00,20.0,6.0,29.72,SW,225,2.0,-999.0,55,0.00,,,0.00,,2017-12-13 16:41:00,
2017-12-13 11:52:00,19.6,6.0,29.71,North,0,4.0,-999.0,56,0.00,,,0.00,,2017-12-13 16:52:00,
2017-12-13 11:57:00,19.2,6.0,29.71,WNW,293,5.0,-999.0,56,0.00,,,0.00,,2017-12-13 16:57:00,
2017-12-13 12:03:00,19.7,7.0,29.71,West,270,4.0,-999.0,56,0.00,,,0.00,,2017-12-13 17:03:00,
2017-12-13 12:08:00,21.3,8.0,29.71,NNW,338,2.0,-999.0,55,0.00,,,0.00,,2017-12-13 17:08:00,
2017-12-13 12:19:00,20.2,7.0,29.71,North,0,1.0,-999.0,55,0.00,,,0.00,,2017-12-13 17:19:00,
2017-12-13 12:25:00,20.4,7.0,29.71,NNE,23,3.0,-999.0,55,0.00,,,0.00,,2017-12-13 17:25:00,
2017-12-13 12:30:00,20.2,7.0,29.71,WNW,293,7.0,-999.0,56,0.00,,,0.00,,2017-12-13 17:30:00,
2017-12-13 12:41:00,20.4,8.0,29.70,NW,315,6.0,-999.0,58,0.00,,,0.00,,2017-12-13 17:41:00,
2017-12-13 12:47:00,20.4,8.0,29.70,NNW,338,6.0,-999.0,58,0.00,,,0.00,,2017-12-13 17:47:00,
2017-12-13 12:58:00,19.0,7.0,29.70,SW,225,6.0,-999.0,59,0.00,,,0.00,,2017-12-13 17:58:00,
2017-12-13 13:04:00,19.0,7.0,29.70,West,270,5.0,-999.0,59,0.00,,,0.00,,2017-12-13 18:04:00,
2017-12-13 13:15:00,18.5,6.0,29.69,NW,315,3.0,-999.0,60,0.00,,,0.00,,2017-12-13 18:15:00,
2017-12-13 13:21:00,18.7,6.0,29.69,WNW,293,2.0,-999.0,59,0.00,,,0.00,,2017-12-13 18:21:00,
2017-12-13 13:32:00,17.9,6.0,29.69,West,270,3.0,-999.0,60,0.00,,,0.00,,2017-12-13 18:32:00,
2017-12-13 13:38:00,18.2,7.0,29.69,NW,315,3.0,-999.0,61,0.00,,,0.00,,2017-12-13 18:38:00,
2017-12-13 13:44:00,18.1,6.0,29.68,NNW,338,3.0,-999.0,60,0.00,,,0.00,,2017-12-13 18:44:00,
2017-12-13 13:49:00,18.1,6.0,29.68,NNW,338,3.0,-999.0,60,0.00,,,0.00,,2017-12-13 18:49:00,
2017-12-13 13:56:00,18.2,7.0,29.68,WNW,293,3.0,-999.0,61,0.00,,,0.00,,2017-12-13 18:56:00,
2017-12-13 14:01:00,18.5,7.0,29.68,WNW,293,7.0,-999.0,61,0.00,,,0.00,,2017-12-13 19:01:00,
2017-12-13 14:07:00,18.7,7.0,29.68,SSW,203,3.0,-999.0,61,0.00,,,0.00,,2017-12-13 19:07:00,
2017-12-13 14:18:00,18.7,7.0,29.67,WSW,248,3.0,-999.0,61,0.00,,,0.00,,2017-12-13 19:18:00,
2017-12-13 14:24:00,18.8,7.0,29.67,North,0,3.0,-999.0,61,0.00,,,0.00,,2017-12-13 19:24:00,
2017-12-13 14:35:00,18.7,7.0,29.67,West,270,3.0,-999.0,61,0.00,,,0.00,,2017-12-13 19:35:00,
2017-12-13 14:47:00,18.8,8.0,29.66,NW,315,3.0,-999.0,61,0.00,,,0.00,,2017-12-13 19:47:00,
2017-12-13 14:53:00,19.0,8.0,29.66,NW,315,1.0,-999.0,63,0.00,,,0.00,,2017-12-13 19:53:00,
2017-12-13 14:59:00,19.0,8.0,29.66,WNW,293,3.0,-999.0,61,0.00,,,0.00,,2017-12-13 19:59:00,
2017-12-13 15:17:00,19.0,7.0,29.66,WNW,293,2.0,-999.0,61,0.00,,,0.00,,2017-12-13 20:17:00,
2017-12-13 15:23:00,19.0,8.0,29.67,West,270,0.0,-999.0,61,0.00,,,0.00,,2017-12-13 20:23:00,
2017-12-13 15:40:00,18.8,8.0,29.66,South,180,2.0,-999.0,61,0.00,,,0.00,,2017-12-13 20:40:00,
2017-12-13 15:45:00,18.8,8.0,29.67,SSW,203,2.0,-999.0,61,0.00,,,0.00,,2017-12-13 20:45:00,
2017-12-13 15:51:00,18.7,8.0,29.66,South,180,2.0,-999.0,63,0.00,,,0.00,,2017-12-13 20:51:00,
2017-12-13 16:12:00,18.1,7.0,29.65,NNW,338,2.0,-999.0,63,0.00,,,0.00,,2017-12-13 21:12:00,
2017-12-13 16:18:00,18.1,7.0,29.64,North,0,0.0,-999.0,63,0.00,,,0.00,,2017-12-13 21:18:00,
2017-12-13 16:23:00,17.9,7.0,29.64,NE,45,1.0,-999.0,63,0.00,,,0.00,,2017-12-13 21:23:00,
2017-12-13 16:34:00,17.7,7.0,29.63,NNE,23,0.0,-999.0,63,0.00,,,0.00,,2017-12-13 21:34:00,
2017-12-13 16:47:00,17.4,7.0,29.63,NNE,23,0.0,-999.0,63,0.00,,,0.00,,2017-12-13 21:47:00,
2017-12-13 16:55:00,17.2,7.0,29.63,NNE,23,0.0,-999.0,65,0.00,,,0.00,,2017-12-13 21:55:00,
2017-12-13 17:11:00,17.1,7.0,29.62,West,270,0.0,-999.0,65,0.00,,,0.00,,2017-12-13 22:11:00,
2017-12-13 17:17:00,17.1,7.0,29.62,NNE,23,0.0,-999.0,65,0.00,,,0.00,,2017-12-13 22:17:00,
2017-12-13 17:34:00,16.9,7.0,29.61,North,0,0.0,-999.0,66,0.00,,,0.00,,2017-12-13 22:34:00,
2017-12-13 17:41:00,16.7,7.0,29.61,NNE,23,0.0,-999.0,66,0.00,,,0.00,,2017-12-13 22:41:00,
2017-12-13 17:47:00,16.7,7.0,29.61,NNE,23,1.0,-999.0,66,0.00,,,0.00,,2017-12-13 22:47:00,
2017-12-13 17:53:00,16.7,7.0,29.61,NNE,23,1.0,-999.0,68,0.00,,,0.00,,2017-12-13 22:53:00,
2017-12-13 17:58:00,16.4,7.0,29.60,NNE,23,1.0,-999.0,68,0.00,,,0.00,,2017-12-13 22:58:00,
2017-12-13 18:09:00,16.4,7.0,29.60,NE,45,0.0,-999.0,68,0.00,,,0.00,,2017-12-13 23:09:00,
2017-12-13 18:20:00,16.2,7.0,29.61,ESE,113,0.0,-999.0,68,0.00,,,0.00,,2017-12-13 23:20:00,
2017-12-13 18:26:00,16.2,7.0,29.61,North,0,0.0,-999.0,68,0.00,,,0.00,,2017-12-13 23:26:00,
2017-12-13 18:32:00,16.2,7.0,29.61,NE,45,0.0,-999.0,68,0.00,,,0.00,,2017-12-13 23:32:00,
2017-12-13 18:54:00,16.2,8.0,29.61,North,0,1.0,-999.0,70,0.00,,,0.00,,2017-12-13 23:54:00,
2017-12-13 18:59:00,16.2,8.0,29.60,ESE,113,0.0,-999.0,70,0.00,,,0.00,,2017-12-13 23:59:00,
2017-12-13 19:10:00,16.2,8.0,29.61,NNE,23,0.0,-999.0,70,0.00,,,0.00,,2017-12-14 00:10:00,
2017-12-13 19:16:00,16.2,8.0,29.61,SE,135,2.0,-999.0,71,0.00,,,0.00,,2017-12-14 00:16:00,
2017-12-13 19:26:00,15.9,9.0,29.62,ESE,113,2.0,-999.0,74,0.00,,,0.00,,2017-12-14 00:26:00,
2017-12-13 19:38:00,15.9,9.0,29.61,East,90,0.0,-999.0,75,0.00,,,0.00,,2017-12-14 00:38:00,
2017-12-13 19:45:00,15.9,10.0,29.61,NNW,338,2.0,-999.0,76,0.00,,,0.00,,2017-12-14 00:45:00,
2017-12-13 19:51:00,15.8,9.0,29.61,East,90,0.0,-999.0,76,0.00,,,0.00,,2017-12-14 00:51:00,
2017-12-13 20:02:00,15.6,10.0,29.62,WNW,293,0.0,-999.0,79,0.00,,,0.00,,2017-12-14 01:02:00,
2017-12-13 20:13:00,15.6,10.0,29.62,NE,45,0.0,-999.0,79,0.00,,,0.00,,2017-12-14 01:13:00,
2017-12-13 20:24:00,15.3,10.0,29.62,NW,315,0.0,-999.0,80,0.00,,,0.00,,2017-12-14 01:24:00,
2017-12-13 20:30:00,15.2,10.0,29.62,NNE,23,3.0,-999.0,80,0.00,,,0.00,,2017-12-14 01:30:00,
2017-12-13 20:36:00,15.2,10.0,29.62,NNW,338,1.0,-999.0,81,0.00,,,0.00,,2017-12-14 01:36:00,
2017-12-13 20:41:00,15.0,10.0,29.62,NE,45,1.0,-999.0,81,0.00,,,0.00,,2017-12-14 01:41:00,
2017-12-13 20:48:00,15.0,10.0,29.61,NNW,338,3.0,-999.0,81,0.00,,,0.00,,2017-12-14 01:48:00,
2017-12-13 21:02:00,14.9,10.0,29.61,NNE,23,3.0,-999.0,81,0.00,,,0.00,,2017-12-14 02:02:00,
2017-12-13 21:13:00,14.9,10.0,29.61,North,0,3.0,-999.0,83,0.00,,,0.00,,2017-12-14 02:13:00,
2017-12-13 21:25:00,14.7,10.0,29.61,NNE,23,3.0,-999.0,83,0.00,,,0.00,,2017-12-14 02:25:00,
2017-12-13 21:30:00,14.5,10.0,29.61,NW,315,1.0,-999.0,83,0.00,,,0.00,,2017-12-14 02:30:00,
2017-12-13 21:47:00,14.3,10.0,29.60,WSW,248,4.0,-999.0,83,0.00,,,0.00,,2017-12-14 02:47:00,
2017-12-13 21:53:00,14.3,10.0,29.60,NNW,338,2.0,-999.0,83,0.00,,,0.00,,2017-12-14 02:53:00,
2017-12-13 21:58:00,14.3,10.0,29.61,NE,45,1.0,-999.0,83,0.00,,,0.00,,2017-12-14 02:58:00,
2017-12-13 22:04:00,14.3,10.0,29.60,NNE,23,4.0,-999.0,83,0.00,,,0.00,,2017-12-14 03:04:00,
2017-12-13 22:09:00,14.3,10.0,29.60,East,90,2.0,-999.0,83,0.00,,,0.00,,2017-12-14 03:09:00,
2017-12-13 22:20:00,14.1,10.0,29.60,NE,45,1.0,-999.0,83,0.00,,,0.00,,2017-12-14 03:20:00,
2017-12-13 22:27:00,13.9,10.0,29.59,NNE,23,4.0,-999.0,83,0.00,,,0.00,,2017-12-14 03:27:00,
2017-12-13 22:32:00,13.7,9.0,29.59,NNE,23,2.0,-999.0,83,0.00,,,0.00,,2017-12-14 03:32:00,
2017-12-13 22:38:00,13.7,9.0,29.59,NW,315,2.0,-999.0,83,0.00,,,0.00,,2017-12-14 03:38:00,
2017-12-13 22:43:00,13.7,9.0,29.59,NNE,23,3.0,-999.0,83,0.00,,,0.00,,2017-12-14 03:43:00,
2017-12-13 22:49:00,13.7,9.0,29.59,NNE,23,4.0,-999.0,83,0.00,,,0.00,,2017-12-14 03:49:00,
2017-12-13 22:55:00,13.6,9.0,29.59,North,0,3.0,-999.0,83,0.00,,,0.00,,2017-12-14 03:55:00,
2017-12-13 23:00:00,13.6,9.0,29.59,North,0,5.0,-999.0,83,0.00,,,0.00,,2017-12-14 04:00:00,
2017-12-13 23:02:00,13.6,9.0,29.59,North,0,2.0,-999.0,83,0.00,,,0.00,,2017-12-14 04:02:00,
2017-12-13 23:07:00,13.6,9.0,29.59,North,0,5.0,-999.0,83,0.00,,,0.00,,2017-12-14 04:07:00,
2017-12-13 23:13:00,13.6,9.0,29.59,NNW,338,3.0,-999.0,83,0.00,,,0.00,,2017-12-14 04:13:00,
2017-12-13 23:24:00,13.6,9.0,29.18,WNW,293,6.0,-999.0,83,0.00,,,0.00,,2017-12-14 04:24:00,
2017-12-13 23:29:00,13.6,9.0,29.59,ENE,68,2.0,-999.0,81,0.00,,,0.00,,2017-12-14 04:29:00,
2017-12-13 23:34:00,13.6,9.0,29.59,NNE,23,5.0,-999.0,81,0.00,,,0.00,,2017-12-14 04:34:00,
2017-12-13 23:40:00,13.6,9.0,29.59,NNW,338,2.0,-999.0,81,0.00,,,0.00,,2017-12-14 04:40:00,